Location: Buffign�court
(47.8126°N, 6.0176°E)
Time: 17:06:10
(UTC+00:00)

Okean 2 - Pass Details

Date: 16 June 2021
Orbit: 560 x 575 km, 82.5° (Epoch: 03 August)

Event Time Altitude Azimuth Distance (km) Brightness Sun altitude
Rises 20:40:42 0° 203° (SSW) 2,747 6.6 -8.6°
Reaches altitude 10° 20:42:56 10° 210° (SSW) 1,854 5.8 -8.8°
Maximum altitude 20:46:52 46° 284° (WNW) 768 4.5 -9.2°
Drops below altitude 10° 20:50:49 10° 358° (N) 1,864 6.9 -9.7°
Sets 20:53:05 0° 5° (N) 2,764 7.7 -9.9°
